Time,TemperatureF,DewpointF,PressureIn,WindDirection,WindDirectionDegrees,WindSpeedMPH,WindSpeedGustMPH,Humidity,HourlyPrecipIn,Conditions,Clouds,dailyrainin,SoftwareType,DateUTC
2013-03-27 00:02:00,57.4,18.6,29.95,ESE,113,0.2,0.9,22,0.00,,,0.00,WUHU216HW,2013-03-27 07:02:00,
2013-03-27 00:13:00,57.1,18.4,29.95,SE,135,0.0,0.4,22,0.00,,,0.00,WUHU216HW,2013-03-27 07:13:00,
2013-03-27 00:23:00,56.7,18.0,29.95,SSW,203,0.2,1.3,22,0.00,,,0.00,WUHU216HW,2013-03-27 07:23:00,
2013-03-27 00:33:00,56.3,18.7,29.94,SE,135,0.4,1.8,23,0.00,,,0.00,WUHU216HW,2013-03-27 07:33:00,
2013-03-27 00:43:00,56.2,18.6,29.94,ESE,113,0.7,1.3,23,0.00,,,0.00,WUHU216HW,2013-03-27 07:43:00,
2013-03-27 00:53:00,56.2,18.6,29.94,East,90,0.0,0.7,23,0.00,,,0.00,WUHU216HW,2013-03-27 07:53:00,
2013-03-27 01:03:00,55.8,19.2,29.94,SE,135,0.0,1.1,24,0.00,,,0.00,WUHU216HW,2013-03-27 08:03:00,
2013-03-27 01:13:00,55.3,19.6,29.94,SE,135,0.0,0.9,25,0.00,,,0.00,WUHU216HW,2013-03-27 08:13:00,
2013-03-27 01:23:00,54.7,19.2,29.93,SE,135,0.0,0.0,25,0.00,,,0.00,WUHU216HW,2013-03-27 08:23:00,
2013-03-27 01:33:00,54.2,21.6,29.93,South,180,0.0,0.4,28,0.00,,,0.00,WUHU216HW,2013-03-27 08:33:00,
2013-03-27 01:43:00,53.6,21.2,29.93,SSE,158,0.0,0.4,28,0.00,,,0.00,WUHU216HW,2013-03-27 08:43:00,
2013-03-27 01:53:00,53.3,21.8,29.93,SE,135,0.0,0.4,29,0.00,,,0.00,WUHU216HW,2013-03-27 08:53:00,
2013-03-27 02:03:00,53.1,21.6,29.92,SSW,203,0.0,0.7,29,0.00,,,0.00,WUHU216HW,2013-03-27 09:03:00,
2013-03-27 02:13:00,52.9,22.4,29.92,WSW,248,0.0,0.4,30,0.00,,,0.00,WUHU216HW,2013-03-27 09:13:00,
2013-03-27 02:23:00,52.6,22.1,29.92,WSW,248,0.0,0.0,30,0.00,,,0.00,WUHU216HW,2013-03-27 09:23:00,
2013-03-27 02:33:00,52.2,21.8,29.92,WSW,248,0.0,0.2,30,0.00,,,0.00,WUHU216HW,2013-03-27 09:33:00,
2013-03-27 02:44:00,51.8,22.2,29.92,East,90,0.0,0.7,31,0.00,,,0.00,WUHU216HW,2013-03-27 09:44:00,
2013-03-27 02:54:00,51.5,21.8,29.92,SE,135,0.7,0.9,31,0.00,,,0.00,WUHU216HW,2013-03-27 09:54:00,
2013-03-27 03:04:00,51.3,21.0,29.91,ESE,113,1.1,1.3,30,0.00,,,0.00,WUHU216HW,2013-03-27 10:04:00,
2013-03-27 03:14:00,51.3,21.0,29.92,ESE,113,0.0,1.1,30,0.00,,,0.00,WUHU216HW,2013-03-27 10:14:00,
2013-03-27 03:24:00,51.1,21.4,29.92,ESE,113,0.7,1.1,31,0.00,,,0.00,WUHU216HW,2013-03-27 10:24:00,
2013-03-27 03:34:00,51.1,20.8,29.92,East,90,0.0,1.6,30,0.00,,,0.00,WUHU216HW,2013-03-27 10:34:00,
2013-03-27 03:44:00,50.8,21.2,29.92,ENE,68,0.2,1.1,31,0.00,,,0.00,WUHU216HW,2013-03-27 10:44:00,
2013-03-27 03:54:00,50.6,21.0,29.92,SE,135,0.0,0.9,31,0.00,,,0.00,WUHU216HW,2013-03-27 10:54:00,
2013-03-27 04:04:00,50.4,21.5,29.92,SE,135,0.0,1.1,32,0.00,,,0.00,WUHU216HW,2013-03-27 11:04:00,
2013-03-27 04:14:00,50.0,21.9,29.92,SSE,158,0.4,0.4,33,0.00,,,0.00,WUHU216HW,2013-03-27 11:14:00,
2013-03-27 04:24:00,49.7,21.5,29.92,SW,225,0.0,0.4,33,0.00,,,0.00,WUHU216HW,2013-03-27 11:24:00,
2013-03-27 04:34:00,49.3,22.0,29.92,SE,135,0.0,0.2,34,0.00,,,0.00,WUHU216HW,2013-03-27 11:34:00,
2013-03-27 04:44:00,49.0,21.6,29.92,ESE,113,0.0,1.1,34,0.00,,,0.00,WUHU216HW,2013-03-27 11:44:00,
2013-03-27 04:54:00,48.8,21.5,29.92,East,90,0.4,0.9,34,0.00,,,0.00,WUHU216HW,2013-03-27 11:54:00,
2013-03-27 05:04:00,48.6,21.3,29.92,SE,135,0.2,0.9,34,0.00,,,0.00,WUHU216HW,2013-03-27 12:04:00,
2013-03-27 05:14:00,48.6,21.3,29.92,ESE,113,0.4,1.1,34,0.00,,,0.00,WUHU216HW,2013-03-27 12:14:00,
2013-03-27 05:24:00,48.4,21.2,29.93,SW,225,0.0,0.4,34,0.00,,,0.00,WUHU216HW,2013-03-27 12:24:00,
2013-03-27 05:34:00,48.1,22.2,29.93,ENE,68,0.4,0.4,36,0.00,,,0.00,WUHU216HW,2013-03-27 12:34:00,
2013-03-27 05:45:00,47.9,22.7,29.93,ENE,68,0.0,0.4,37,0.00,,,0.00,WUHU216HW,2013-03-27 12:45:00,
2013-03-27 05:55:00,47.7,22.5,29.94,ENE,68,0.0,0.0,37,0.00,,,0.00,WUHU216HW,2013-03-27 12:55:00,
2013-03-27 06:05:00,47.5,22.4,29.94,ENE,68,0.0,0.0,37,0.00,,,0.00,WUHU216HW,2013-03-27 13:05:00,
2013-03-27 06:15:00,47.3,22.2,29.94,South,180,0.0,0.2,37,0.00,,,0.00,WUHU216HW,2013-03-27 13:15:00,
2013-03-27 06:25:00,47.2,22.7,29.94,NE,45,0.0,0.4,38,0.00,,,0.00,WUHU216HW,2013-03-27 13:25:00,
2013-03-27 06:35:00,46.8,23.0,29.95,ENE,68,0.0,0.0,39,0.00,,,0.00,WUHU216HW,2013-03-27 13:35:00,
2013-03-27 06:45:00,47.0,23.2,29.95,ENE,68,0.0,0.0,39,0.00,,,0.00,WUHU216HW,2013-03-27 13:45:00,
2013-03-27 06:55:00,47.3,24.2,29.95,East,90,1.1,1.1,40,0.00,,,0.00,WUHU216HW,2013-03-27 13:55:00,
2013-03-27 07:05:00,48.2,25.0,29.96,SSW,203,0.0,2.0,40,0.00,,,0.00,WUHU216HW,2013-03-27 14:05:00,
2013-03-27 07:15:00,49.0,25.0,29.96,SE,135,0.4,0.4,39,0.00,,,0.00,WUHU216HW,2013-03-27 14:15:00,
2013-03-27 07:25:00,50.0,25.9,29.96,ENE,68,0.0,0.4,39,0.00,,,0.00,WUHU216HW,2013-03-27 14:25:00,
2013-03-27 07:35:00,51.1,26.9,29.97,South,180,0.0,1.1,39,0.00,,,0.00,WUHU216HW,2013-03-27 14:35:00,
2013-03-27 07:45:00,52.6,26.8,29.97,SW,225,0.0,0.9,37,0.00,,,0.00,WUHU216HW,2013-03-27 14:45:00,
2013-03-27 07:55:00,55.4,27.3,29.97,WSW,248,0.0,2.7,34,0.00,,,0.00,WUHU216HW,2013-03-27 14:55:00,
2013-03-27 08:05:00,56.7,27.7,29.97,SW,225,1.1,1.3,33,0.00,,,0.00,WUHU216HW,2013-03-27 15:05:00,
2013-03-27 08:15:00,58.1,28.4,29.98,ESE,113,1.1,2.2,32,0.00,,,0.00,WUHU216HW,2013-03-27 15:15:00,
2013-03-27 08:26:00,59.4,28.0,29.98,SSE,158,0.2,1.8,30,0.00,,,0.00,WUHU216HW,2013-03-27 15:26:00,
2013-03-27 08:36:00,60.7,27.1,29.97,SE,135,1.6,1.8,28,0.00,,,0.00,WUHU216HW,2013-03-27 15:36:00,
2013-03-27 08:46:00,62.5,26.7,29.98,SE,135,0.4,3.1,26,0.00,,,0.00,WUHU216HW,2013-03-27 15:46:00,
2013-03-27 08:56:00,63.9,28.0,29.98,SE,135,1.1,1.6,26,0.00,,,0.00,WUHU216HW,2013-03-27 15:56:00,
2013-03-27 09:06:00,65.9,28.7,29.98,NW,315,0.7,2.2,25,0.00,,,0.00,WUHU216HW,2013-03-27 16:06:00,
2013-03-27 09:17:00,67.3,28.9,29.98,NNW,338,0.9,1.8,24,0.00,,,0.00,WUHU216HW,2013-03-27 16:17:00,
2013-03-27 09:27:00,68.4,27.8,29.98,WSW,248,2.2,2.2,22,0.00,,,0.00,WUHU216HW,2013-03-27 16:27:00,
2013-03-27 09:37:00,69.8,28.0,29.98,NW,315,1.6,2.7,21,0.00,,,0.00,WUHU216HW,2013-03-27 16:37:00,
2013-03-27 09:47:00,71.5,26.6,29.98,SE,135,0.7,1.6,19,0.00,,,0.00,WUHU216HW,2013-03-27 16:47:00,
2013-03-27 09:57:00,72.5,26.0,29.98,NNW,338,1.6,2.2,18,0.00,,,0.00,WUHU216HW,2013-03-27 16:57:00,
2013-03-27 10:07:00,74.2,25.8,29.98,SSW,203,3.1,4.7,17,0.00,,,0.00,WUHU216HW,2013-03-27 17:07:00,
2013-03-27 10:17:00,74.9,26.3,29.98,SW,225,1.1,3.8,17,0.00,,,0.00,WUHU216HW,2013-03-27 17:17:00,
2013-03-27 10:27:00,75.8,25.3,29.98,West,270,4.3,4.3,16,0.00,,,0.00,WUHU216HW,2013-03-27 17:27:00,
2013-03-27 10:37:00,76.7,26.0,29.98,SW,225,4.3,4.3,16,0.00,,,0.00,WUHU216HW,2013-03-27 17:37:00,
2013-03-27 10:47:00,77.4,24.9,29.98,SW,225,0.7,3.6,15,0.00,,,0.00,WUHU216HW,2013-03-27 17:47:00,
2013-03-27 10:57:00,78.1,25.5,29.98,North,0,1.8,4.5,15,0.00,,,0.00,WUHU216HW,2013-03-27 17:57:00,
2013-03-27 11:07:00,78.8,22.7,29.98,SW,225,1.8,7.4,13,0.00,,,0.00,WUHU216HW,2013-03-27 18:07:00,
2013-03-27 11:17:00,79.4,23.1,29.98,SW,225,5.8,6.3,13,0.00,,,0.00,WUHU216HW,2013-03-27 18:17:00,
2013-03-27 11:27:00,80.3,23.9,29.98,SE,135,3.4,7.2,13,0.00,,,0.00,WUHU216HW,2013-03-27 18:27:00,
2013-03-27 11:37:00,81.4,23.0,29.98,South,180,4.3,6.9,12,0.00,,,0.00,WUHU216HW,2013-03-27 18:37:00,
2013-03-27 11:47:00,82.1,22.0,29.98,SW,225,4.7,6.0,11,0.00,,,0.00,WUHU216HW,2013-03-27 18:47:00,
2013-03-27 11:57:00,82.3,23.8,29.97,SW,225,1.8,6.3,12,0.00,,,0.00,WUHU216HW,2013-03-27 18:57:00,
2013-03-27 12:08:00,82.6,24.0,29.97,West,270,1.8,6.3,12,0.00,,,0.00,WUHU216HW,2013-03-27 19:08:00,
2013-03-27 12:18:00,83.0,22.6,29.96,SE,135,8.1,8.1,11,0.00,,,0.00,WUHU216HW,2013-03-27 19:18:00,
2013-03-27 12:28:00,83.9,23.2,29.96,East,90,2.7,6.7,11,0.00,,,0.00,WUHU216HW,2013-03-27 19:28:00,
2013-03-27 12:38:00,84.1,21.7,29.96,West,270,2.7,6.3,10,0.00,,,0.00,WUHU216HW,2013-03-27 19:38:00,
2013-03-27 12:48:00,83.5,21.2,29.95,West,270,4.5,7.2,10,0.00,,,0.00,WUHU216HW,2013-03-27 19:48:00,
2013-03-27 12:58:00,83.3,21.2,29.95,West,270,8.1,8.1,10,0.00,,,0.00,WUHU216HW,2013-03-27 19:58:00,
2013-03-27 13:08:00,84.1,21.7,29.95,WSW,248,2.5,8.3,10,0.00,,,0.00,WUHU216HW,2013-03-27 20:08:00,
2013-03-27 13:18:00,84.6,23.8,29.94,SW,225,5.8,7.6,11,0.00,,,0.00,WUHU216HW,2013-03-27 20:18:00,
2013-03-27 13:28:00,85.0,22.3,29.94,WNW,293,4.3,4.3,10,0.00,,,0.00,WUHU216HW,2013-03-27 20:28:00,
2013-03-27 13:38:00,85.3,22.7,29.93,SW,225,4.7,7.6,10,0.00,,,0.00,WUHU216HW,2013-03-27 20:38:00,
2013-03-27 13:48:00,85.9,23.0,29.93,SSW,203,9.6,14.1,10,0.00,,,0.00,WUHU216HW,2013-03-27 20:48:00,
2013-03-27 13:58:00,86.0,23.2,29.93,SW,225,3.4,8.1,10,0.00,,,0.00,WUHU216HW,2013-03-27 20:58:00,
2013-03-27 14:08:00,86.2,23.4,29.93,South,180,6.3,13.2,10,0.00,,,0.00,WUHU216HW,2013-03-27 21:08:00,
2013-03-27 14:18:00,86.0,23.2,29.93,SSW,203,9.8,9.8,10,0.00,,,0.00,WUHU216HW,2013-03-27 21:18:00,
2013-03-27 14:28:00,85.7,23.0,29.92,WSW,248,2.5,6.9,10,0.00,,,0.00,WUHU216HW,2013-03-27 21:28:00,
2013-03-27 14:38:00,85.7,23.0,29.92,SW,225,6.0,8.3,10,0.00,,,0.00,WUHU216HW,2013-03-27 21:38:00,
2013-03-27 14:48:00,85.5,24.5,29.92,WSW,248,8.1,10.3,11,0.00,,,0.00,WUHU216HW,2013-03-27 21:48:00,
2013-03-27 14:58:00,85.1,22.5,29.92,SW,225,10.5,12.8,10,0.00,,,0.00,WUHU216HW,2013-03-27 21:58:00,
2013-03-27 15:08:00,84.6,22.1,29.92,WNW,293,6.3,11.4,10,0.00,,,0.00,WUHU216HW,2013-03-27 22:08:00,
2013-03-27 15:19:00,84.1,21.7,29.91,West,270,4.0,8.7,10,0.00,,,0.00,WUHU216HW,2013-03-27 22:19:00,
2013-03-27 15:29:00,83.9,23.2,29.91,West,270,6.3,10.5,11,0.00,,,0.00,WUHU216HW,2013-03-27 22:29:00,
2013-03-27 15:39:00,84.1,25.1,29.91,West,270,4.0,6.0,12,0.00,,,0.00,WUHU216HW,2013-03-27 22:39:00,
2013-03-27 15:49:00,83.5,24.7,29.91,NW,315,7.4,7.6,12,0.00,,,0.00,WUHU216HW,2013-03-27 22:49:00,
2013-03-27 15:59:00,83.3,24.6,29.91,ESE,113,4.7,8.5,12,0.00,,,0.00,WUHU216HW,2013-03-27 22:59:00,
2013-03-27 16:09:00,83.0,26.0,29.91,SW,225,4.3,9.2,13,0.00,,,0.00,WUHU216HW,2013-03-27 23:09:00,
2013-03-27 16:19:00,82.4,25.6,29.91,SW,225,6.0,8.5,13,0.00,,,0.00,WUHU216HW,2013-03-27 23:19:00,
2013-03-27 16:29:00,82.1,25.3,29.91,WNW,293,7.6,11.2,13,0.00,,,0.00,WUHU216HW,2013-03-27 23:29:00,
2013-03-27 16:39:00,81.7,25.0,29.91,WSW,248,3.6,6.3,13,0.00,,,0.00,WUHU216HW,2013-03-27 23:39:00,
2013-03-27 16:49:00,82.1,25.3,29.91,WSW,248,5.4,5.4,13,0.00,,,0.00,WUHU216HW,2013-03-27 23:49:00,
2013-03-27 16:59:00,81.7,25.0,29.91,WNW,293,4.9,7.6,13,0.00,,,0.00,WUHU216HW,2013-03-27 23:59:00,
2013-03-27 17:09:00,81.4,24.8,29.91,NW,315,1.8,7.6,13,0.00,,,0.00,WUHU216HW,2013-03-28 00:09:00,
2013-03-27 17:19:00,81.2,24.6,29.91,WSW,248,2.5,8.1,13,0.00,,,0.00,WUHU216HW,2013-03-28 00:19:00,
2013-03-27 17:29:00,81.0,24.5,29.91,WSW,248,3.4,9.2,13,0.00,,,0.00,WUHU216HW,2013-03-28 00:29:00,
2013-03-27 17:39:00,81.0,22.8,29.91,West,270,3.4,7.2,12,0.00,,,0.00,WUHU216HW,2013-03-28 00:39:00,
2013-03-27 17:49:00,81.0,22.8,29.91,SW,225,8.1,8.1,12,0.00,,,0.00,WUHU216HW,2013-03-28 00:49:00,
2013-03-27 17:59:00,80.8,22.6,29.92,SW,225,3.4,7.6,12,0.00,,,0.00,WUHU216HW,2013-03-28 00:59:00,
2013-03-27 18:10:00,80.3,23.9,29.92,WSW,248,6.7,6.7,13,0.00,,,0.00,WUHU216HW,2013-03-28 01:10:00,
2013-03-27 18:20:00,79.4,23.1,29.92,West,270,3.4,5.6,13,0.00,,,0.00,WUHU216HW,2013-03-28 01:20:00,
2013-03-27 18:30:00,78.8,22.7,29.92,WSW,248,3.4,6.5,13,0.00,,,0.00,WUHU216HW,2013-03-28 01:30:00,
2013-03-27 18:40:00,78.1,22.2,29.92,NW,315,5.4,5.8,13,0.00,,,0.00,WUHU216HW,2013-03-28 01:40:00,
2013-03-27 18:50:00,77.6,21.8,29.93,SSW,203,4.3,4.3,13,0.00,,,0.00,WUHU216HW,2013-03-28 01:50:00,
2013-03-27 19:00:00,77.0,23.1,29.93,West,270,1.3,3.4,14,0.00,,,0.00,WUHU216HW,2013-03-28 02:00:00,
2013-03-27 19:10:00,76.3,24.1,29.93,SW,225,1.8,2.5,15,0.00,,,0.00,WUHU216HW,2013-03-28 02:10:00,
2013-03-27 19:20:00,76.0,23.8,29.93,West,270,1.1,3.8,15,0.00,,,0.00,WUHU216HW,2013-03-28 02:20:00,
2013-03-27 19:30:00,75.6,23.5,29.94,NW,315,1.1,3.8,15,0.00,,,0.00,WUHU216HW,2013-03-28 02:30:00,
2013-03-27 19:40:00,75.2,23.2,29.94,West,270,1.6,2.5,15,0.00,,,0.00,WUHU216HW,2013-03-28 02:40:00,
2013-03-27 19:50:00,74.5,22.7,29.94,WNW,293,2.2,2.5,15,0.00,,,0.00,WUHU216HW,2013-03-28 02:50:00,
2013-03-27 20:00:00,74.2,22.4,29.95,WNW,293,1.8,3.4,15,0.00,,,0.00,WUHU216HW,2013-03-28 03:00:00,
2013-03-27 20:10:00,73.6,22.0,29.95,West,270,2.0,2.7,15,0.00,,,0.00,WUHU216HW,2013-03-28 03:10:00,
2013-03-27 20:20:00,73.1,18.3,29.95,WSW,248,3.1,3.1,13,0.00,,,0.00,WUHU216HW,2013-03-28 03:20:00,
2013-03-27 20:30:00,72.5,17.8,29.95,West,270,2.5,3.1,13,0.00,,,0.00,WUHU216HW,2013-03-28 03:30:00,
2013-03-27 20:41:00,72.2,15.9,29.96,West,270,0.9,4.0,12,0.00,,,0.00,WUHU216HW,2013-03-28 03:41:00,
2013-03-27 20:51:00,71.8,17.3,29.96,WSW,248,1.8,1.8,13,0.00,,,0.00,WUHU216HW,2013-03-28 03:51:00,
2013-03-27 21:01:00,72.0,15.8,29.97,West,270,3.4,3.4,12,0.00,,,0.00,WUHU216HW,2013-03-28 04:01:00,
2013-03-27 21:11:00,72.4,16.1,29.98,NW,315,2.5,4.7,12,0.00,,,0.00,WUHU216HW,2013-03-28 04:11:00,
2013-03-27 21:21:00,72.4,16.1,29.98,WNW,293,1.3,3.4,12,0.00,,,0.00,WUHU216HW,2013-03-28 04:21:00,
2013-03-27 21:32:00,72.0,15.8,29.98,West,270,0.0,3.8,12,0.00,,,0.00,WUHU216HW,2013-03-28 04:32:00,
2013-03-27 21:42:00,71.3,16.8,29.99,SW,225,0.0,1.1,13,0.00,,,0.00,WUHU216HW,2013-03-28 04:42:00,
2013-03-27 21:52:00,69.8,15.7,29.99,SSE,158,0.7,0.7,13,0.00,,,0.00,WUHU216HW,2013-03-28 04:52:00,
2013-03-27 22:02:00,68.4,19.5,29.99,ESE,113,0.4,1.1,16,0.00,,,0.00,WUHU216HW,2013-03-28 05:02:00,
2013-03-27 22:12:00,67.0,18.2,30.00,SE,135,0.4,0.4,16,0.00,,,0.00,WUHU216HW,2013-03-28 05:12:00,
2013-03-27 22:22:00,65.9,17.3,30.00,SE,135,0.4,0.7,16,0.00,,,0.00,WUHU216HW,2013-03-28 05:22:00,
2013-03-27 22:32:00,65.0,18.2,30.00,SSW,203,0.2,0.4,17,0.00,,,0.00,WUHU216HW,2013-03-28 05:32:00,
2013-03-27 22:42:00,63.7,18.8,30.00,SSE,158,0.0,0.4,18,0.00,,,0.00,WUHU216HW,2013-03-28 05:42:00,
2013-03-27 22:52:00,63.0,18.2,30.00,ESE,113,0.0,0.9,18,0.00,,,0.00,WUHU216HW,2013-03-28 05:52:00,
2013-03-27 23:02:00,62.3,19.2,30.01,SE,135,1.1,1.1,19,0.00,,,0.00,WUHU216HW,2013-03-28 06:02:00,
2013-03-27 23:12:00,61.6,18.6,30.01,SE,135,0.4,1.1,19,0.00,,,0.00,WUHU216HW,2013-03-28 06:12:00,
2013-03-27 23:22:00,61.0,18.2,30.01,SE,135,0.4,1.1,19,0.00,,,0.00,WUHU216HW,2013-03-28 06:22:00,
2013-03-27 23:33:00,60.8,20.6,30.02,SE,135,0.4,0.9,21,0.00,,,0.00,WUHU216HW,2013-03-28 06:33:00,
2013-03-27 23:43:00,60.5,20.3,30.02,SE,135,0.0,0.7,21,0.00,,,0.00,WUHU216HW,2013-03-28 06:43:00,
2013-03-27 23:53:00,59.9,19.8,30.02,SE,135,0.4,1.1,21,0.00,,,0.00,WUHU216HW,2013-03-28 06:53:00,